Other Surface Observations
Issued by NWS Los Angeles, CA

Current Version | Previous Version | Text Only | Print | Product List | Glossary On
Versions: 1 2
000
SXUS56 KLOX 261740 RRA
OSOLOX

OFFSHORE OIL PLATFORM HARVEST WEATHER
NATIONAL WEATHER SERVICE OXNARD CA
938 AM PST WED NOV 26 2014

OBSERVATION FROM DRILLING RIG "HARVEST"
LOCATION 34 DEG 28 MIN N...120 DEG 41 MIN W...12 MILES W
PT CONCEPTION ANEMOMETER LOCATED 163 FEET ABOVE SEA LEVEL.
WIND SENSOR IS PARTIALLY BLOCKED BY OIL RIG STRUCTURE.

SPECI 261715Z 35014KT 25SM SKC 19/M07 A3024 RMKS SEAS 3 TO 4 FEET

$$














































































































































































































































































































































USA.gov is the U.S. government's official web portal to all federal, state and local government web resources and services.